WR9A-13 Weather Reports


time (UTC)temp
C
wind
direction
speed
KPH
gust
KPH
rain 1hr
cm
rain 24hr
cm
rain mn
cm
humidity
%
barometer
mb
20260905224526 31 350 11.3 22.5 0.00 0.00 0.00 69 1013.1
20260905224014 31 17 9.7 19.3 0.00 0.00 0.00 69 1013.1
20260905223532 31 27 11.3 25.7 0.00 0.00 0.00 69 1013.1
20260905223029 31 339 11.3 25.7 0.00 0.00 0.00 69 1013.0
20260905222518 31 29 9.7 22.5 0.00 0.00 0.00 69 1012.8
20260905222033 31 11 9.7 22.5 0.00 0.00 0.00 69 1012.6
20260905221521 31 301 11.3 29.0 0.00 0.00 0.00 69 1012.6
20260905221038 31 5 12.9 29.0 0.00 0.00 0.00 69 1012.5
20260905220527 32 5 14.5 25.7 0.00 0.00 0.00 69 1012.5
20260905220018 32 347 11.3 22.5 0.00 0.00 0.00 69 1012.4
20260905215525 32 35 6.4 22.5 0.00 0.00 0.00 69 1012.5
20260905215023 32 335 9.7 24.1 0.00 0.00 0.00 70 1012.6
20260905214540 32 12 9.7 24.1 0.00 0.00 0.00 69 1012.5
20260905214028 32 4 11.3 22.5 0.00 0.00 0.00 69 1012.5
20260905213516 32 349 14.5 22.5 0.00 0.00 0.00 69 1012.4
20260905213014 32 7 6.4 24.1 0.00 0.00 0.00 69 1012.4
20260905212523 33 359 11.3 24.1 0.00 0.00 0.00 68 1012.2
20260905212021 33 340 11.3 20.9 0.00 0.00 0.00 68 1012.2
20260905211538 33 337 8.0 22.5 0.00 0.00 0.00 68 1012.1
20260905211027 33 309 8.0 22.5 0.00 0.00 0.00 67 1012.0
20260905210514 33 32 9.7 22.5 0.00 0.00 0.00 67 1012.0
20260905210026 33 341 11.3 24.1 0.00 0.00 0.00 67 1012.1
20260905205523 34 4 11.3 24.1 0.00 0.00 0.00 65 1012.1
20260905205031 34 344 12.9 22.5 0.00 0.00 0.00 65 1012.2
20260905204529 34 234 9.7 16.1 0.00 0.00 0.00 65 1012.1
20260905204018 34 274 4.8 17.7 0.00 0.00 0.00 65 1012.2
20260905203516 34 264 6.4 17.7 0.00 0.00 0.00 65 1012.3
20260905203019 34 264 8.0 16.1 0.00 0.00 0.00 64 1012.2
20260905202516 34 300 4.8 14.5 0.00 0.00 0.00 64 1012.3
20260905202025 34 313 6.4 19.3 0.00 0.00 0.00 63 1012.3
20260905201523 34 315 6.4 19.3 0.00 0.00 0.00 65 1012.2
20260905201031 33 324 4.8 12.9 0.00 0.00 0.00 66 1012.2
20260905200528 33 332 3.2 12.9 0.00 0.00 0.00 67 1012.3
20260905200039 33 313 4.8 11.3 0.00 0.00 0.00 66 1012.3
20260905195527 33 3 6.4 17.7 0.00 0.00 0.00 66 1012.3
20260905195025 33 343 9.7 17.7 0.00 0.00 0.00 64 1012.3
20260905194514 33 233 4.8 12.9 0.00 0.00 0.00 66 1012.4
20260905194031 34 238 4.8 12.9 0.00 0.00 0.00 66 1012.4
20260905193520 34 310 4.8 16.1 0.00 0.00 0.00 66 1012.7
20260905193037 33 193 6.4 14.5 0.00 0.00 0.00 67 1012.7
20260905192525 33 225 6.4 14.5 0.00 0.00 0.00 68 1012.9
20260905192042 33 259 4.8 14.5 0.00 0.00 0.00 68 1013.0
20260905191530 33 315 4.8 16.1 0.00 0.00 0.00 67 1013.0
20260905191027 33 324 6.4 14.5 0.00 0.00 0.00 66 1012.9
20260905190516 33 328 8.0 14.5 0.00 0.00 0.00 67 1012.8
20260905190028 33 195 6.4 12.9 0.00 0.00 0.00 67 1012.9
20260905185517 33 309 4.8 12.9 0.00 0.00 0.00 65 1013.1
20260905185014 33 315 1.6 12.9 0.00 0.00 0.00 66 1013.1
20260905184522 33 322 4.8 12.9 0.00 0.00 0.00 65 1013.1
20260905184019 33 278 4.8 11.3 0.00 0.00 0.00 67 1013.2
20260905183537 33 347 1.6 8.0 0.00 0.00 0.00 66 1013.2
20260905183026 33 122 3.2 9.7 0.00 0.00 0.00 66 1013.4
20260905182515 33 307 4.8 8.0 0.00 0.00 0.00 66 1013.5
20260905182032 33 213 4.8 8.0 0.00 0.00 0.00 66 1013.6
20260905181520 33 256 4.8 8.0 0.00 0.00 0.00 66 1013.8
20260905181016 33 197 4.8 12.9 0.00 0.00 0.00 67 1014.0
20260905180524 33 192 4.8 12.9 0.00 0.00 0.00 67 1014.0
20260905180015 33 141 4.8 14.5 0.00 0.00 0.00 66 1014.1
20260905175533 33 217 6.4 14.5 0.00 0.00 0.00 65 1014.1
20260905175021 33 264 3.2 14.5 0.00 0.00 0.00 64 1014.2
20260905174519 33 205 6.4 14.5 0.00 0.00 0.00 66 1014.3
20260905174023 33 210 3.2 11.3 0.00 0.00 0.00 65 1014.2
20260905173520 33 202 3.2 8.0 0.00 0.00 0.00 66 1014.2
20260905173029 33 182 3.2 14.5 0.00 0.00 0.00 67 1014.4
20260905172526 32 198 8.0 14.5 0.00 0.00 0.00 66 1014.6
20260905172014 32 201 3.2 11.3 0.00 0.00 0.00 66 1014.5
20260905171531 32 212 4.8 14.5 0.00 0.00 0.00 66 1014.6
20260905171019 32 211 6.4 12.9 0.00 0.00 0.00 68 1014.6
20260905170516 32 114 4.8 11.3 0.00 0.00 0.00 67 1014.7
20260905170017 32 197 4.8 11.3 0.00 0.00 0.00 66 1014.7
20260905165516 32 193 4.8 9.7 0.00 0.00 0.00 67 1014.8
20260905165033 32 212 6.4 11.3 0.00 0.00 0.00 67 1014.8
20260905164520 32 231 4.8 11.3 0.00 0.00 0.00 68 1015.0
20260905164037 31 132 3.2 11.3 0.00 0.00 0.00 68 1014.9
20260905163526 31 240 6.4 12.9 0.00 0.00 0.00 67 1014.9
20260905163014 31 252 4.8 12.9 0.00 0.00 0.00 68 1014.8
20260905162531 31 239 6.4 12.9 0.00 0.00 0.00 69 1014.9
20260905162029 31 199 3.2 12.9 0.00 0.00 0.00 68 1014.9
20260905161518 31 295 3.2 12.9 0.00 0.00 0.00 67 1014.9
20260905161036 31 124 4.8 17.7 0.00 0.00 0.00 68 1014.9
20260905160524 30 175 3.2 14.5 0.00 0.00 0.00 69 1014.7
20260905160015 30 205 8.0 16.1 0.00 0.00 0.00 69 1014.7
20260905155524 30 252 4.8 16.1 0.00 0.00 0.00 69 1014.8
20260905155022 30 248 4.8 14.5 0.00 0.00 0.00 71 1014.9
20260905154540 30 188 6.4 14.5 0.00 0.00 0.00 70 1014.8
20260905154028 30 216 4.8 14.5 0.00 0.00 0.00 69 1014.9
20260905153516 30 150 4.8 12.9 0.00 0.00 0.00 71 1015.0
20260905153032 30 240 3.2 14.5 0.00 0.00 0.00 69 1015.0
20260905152520 30 137 3.2 14.5 0.00 0.00 0.00 70 1014.7
20260905152017 30 109 3.2 14.5 0.00 0.00 0.00 71 1014.7
20260905151526 29 175 3.2 12.9 0.00 0.00 0.00 72 1014.7
20260905151024 29 182 1.6 16.1 0.00 0.00 0.00 72 1014.9
20260905150541 28 180 3.2 19.3 0.00 0.00 0.00 72 1015.0
20260905150023 28 143 4.8 14.5 0.00 0.00 0.00 72 1014.9
20260905145519 28 204 6.4 14.5 0.00 0.00 0.00 72 1015.0
20260905145022 28 201 3.2 12.9 0.00 0.00 0.00 74 1015.1
20260905144519 28 182 4.8 17.7 0.00 0.00 0.00 73 1015.2
20260905144028 28 95 6.4 19.3 0.00 0.00 0.00 74 1015.3
20260905143526 28 178 8.0 19.3 0.00 0.00 0.00 74 1015.2
20260905143015 28 199 3.2 16.1 0.00 0.00 0.00 77 1015.1
20260905142532 27 163 4.8 16.1 0.00 0.00 0.00 76 1015.1
20260905142019 27 230 1.6 14.5 0.00 0.00 0.00 76 1015.0
20260905141517 27 192 4.8 17.7 0.00 0.00 0.00 77 1014.7
20260905141026 27 128 6.4 17.7 0.00 0.00 0.00 76 1014.7
20260905140523 27 171 3.2 14.5 0.00 0.00 0.00 78 1014.7
20260905140034 27 157 1.6 6.4 0.00 0.00 0.00 81 1014.6
20260905135522 27 163 0.0 6.4 0.00 0.00 0.00 82 1014.6
20260905135039 26 170 1.6 8.0 0.00 0.00 0.00 81 1014.5
20260905134528 26 118 3.2 12.9 0.00 0.00 0.00 82 1014.5
20260905134016 26 150 3.2 12.9 0.00 0.00 0.00 81 1014.6
20260905133533 26 161 3.2 11.3 0.00 0.00 0.00 82 1014.7
20260905133030 26 80 1.6 12.9 0.00 0.00 0.00 82 1014.7
20260905132517 26 156 3.2 11.3 0.00 0.00 0.00 83 1014.7
20260905132034 26 120 1.6 11.3 0.00 0.00 0.00 83 1014.6
20260905131522 26 89 3.2 11.3 0.00 0.00 0.00 83 1014.7
20260905131039 26 154 3.2 11.3 0.00 0.00 0.00 84 1014.9
20260905130527 26 149 3.2 11.3 0.00 0.00 0.00 84 1014.7
20260905130018 25 180 1.6 12.9 0.00 0.00 0.00 85 1014.9
20260905125536 25 145 1.6 12.9 0.00 0.00 0.00 84 1014.7
20260905125021 25 107 3.2 9.7 0.00 0.00 0.00 85 1014.8
20260905124537 25 124 3.2 11.3 0.00 0.00 0.00 85 1014.9
20260905124026 25 93 3.2 11.3 0.00 0.00 0.00 86 1014.8
20260905123514 26 132 1.6 9.7 0.00 0.00 0.00 89 1014.8
20260905123032 25 132 3.2 9.7 0.00 0.00 0.00 89 1014.7
20260905122519 25 89 1.6 4.8 0.00 0.00 0.00 90 1014.6
20260905122016 25 82 3.2 8.0 0.00 0.00 0.00 91 1014.5
20260905121534 25 107 0.0 12.9 0.00 0.00 0.00 92 1014.5
20260905121021 25 111 4.8 12.9 0.00 0.00 0.00 93 1014.5
20260905120534 24 206 0.0 1.6 0.00 0.00 0.00 93 1014.2
20260905120017 24 211 0.0 0.0 0.00 0.00 0.00 93 1014.1
20260905115514 24 212 0.0 0.0 0.00 0.00 0.00 93 1014.0
20260905115022 24 212 0.0 0.0 0.00 0.00 0.00 93 1014.1
20260905114518 24 212 0.0 0.0 0.00 0.00 0.00 93 1014.0
20260905114026 24 212 0.0 0.0 0.00 0.00 0.00 93 1014.0
20260905113521 24 211 0.0 0.0 0.00 0.00 0.00 93 1014.0
20260905113040 24 213 0.0 0.0 0.00 0.00 0.00 93 1014.2
20260905112527 24 211 0.0 0.0 0.00 0.00 0.00 93 1014.0
20260905112014 24 213 0.0 0.0 0.00 0.00 0.00 93 1013.9
20260905111531 24 211 0.0 0.0 0.00 0.00 0.00 93 1013.9
20260905111019 24 212 0.0 0.0 0.00 0.00 0.00 93 1013.8
20260905110516 24 211 0.0 0.0 0.00 0.00 0.00 93 1013.7
20260905110026 24 212 0.0 0.0 0.00 0.00 0.00 93 1013.7
20260905105514 24 211 0.0 0.0 0.00 0.00 0.00 93 1013.7
20260905105031 24 212 0.0 1.6 0.00 0.00 0.00 92 1013.7
20260905104520 24 212 0.0 1.6 0.00 0.00 0.00 92 1013.6
20260905104017 24 212 0.0 1.6 0.00 0.00 0.00 92 1013.8
20260905103525 24 212 0.0 0.0 0.00 0.00 0.00 92 1013.7
20260905103021 24 213 0.0 1.6 0.00 0.00 0.00 92 1013.7
20260905102529 24 212 0.0 1.6 0.00 0.00 0.00 92 1013.6
20260905102026 24 211 0.0 1.6 0.00 0.00 0.00 92 1013.6
20260905101515 24 212 0.0 1.6 0.00 0.00 0.00 91 1013.7
20260905101031 24 211 0.0 1.6 0.00 0.00 0.00 91 1013.7
20260905100520 24 212 0.0 1.6 0.00 0.00 0.00 91 1013.7
20260905100032 24 212 0.0 1.6 0.00 0.00 0.00 91 1013.9
20260905095529 24 211 0.0 0.0 0.00 0.00 0.00 91 1013.9
20260905095017 25 212 0.0 1.6 0.00 0.00 0.00 91 1013.9
20260905094533 25 213 0.0 1.6 0.00 0.00 0.00 91 1014.0
20260905094021 25 212 0.0 0.0 0.00 0.00 0.00 91 1014.0
20260905093538 25 212 0.0 0.0 0.00 0.00 0.00 91 1014.0
20260905093026 25 211 0.0 0.0 0.00 0.00 0.00 91 1014.0
20260905092523 25 213 0.0 0.0 0.00 0.00 0.00 91 1014.0
20260905092027 25 212 0.0 0.0 0.00 0.00 0.00 90 1013.9
20260905091525 25 213 0.0 0.0 0.00 0.00 0.00 90 1013.8
20260905091014 25 213 0.0 0.0 0.00 0.00 0.00 90 1013.7
20260905090531 25 213 0.0 0.0 0.00 0.00 0.00 90 1013.8
20260905090042 25 211 0.0 0.0 0.00 0.00 0.00 90 1013.8
20260905085531 25 212 0.0 0.0 0.00 0.00 0.00 90 1013.7
20260905085019 25 211 0.0 0.0 0.00 0.00 0.00 90 1013.7
20260905084516 25 213 0.0 0.0 0.00 0.00 0.00 89 1013.9
20260905084024 25 213 0.0 1.6 0.00 0.00 0.00 90 1014.0
20260905083519 25 211 0.0 3.2 0.00 0.00 0.00 90 1013.9
20260905083036 25 212 1.6 3.2 0.00 0.00 0.00 90 1013.8
20260905082524 25 212 0.0 0.0 0.00 0.00 0.00 89 1013.7
20260905082041 25 213 0.0 0.0 0.00 0.00 0.00 89 1013.7
20260905081529 25 212 0.0 0.0 0.00 0.00 0.00 89 1013.7
20260905081018 25 212 0.0 1.6 0.00 0.00 0.00 89 1013.7
20260905080516 25 212 0.0 1.6 0.00 0.00 0.00 88 1013.5
20260905080028 25 211 0.0 1.6 0.00 0.00 0.00 88 1013.4
20260905075516 25 213 0.0 1.6 0.00 0.00 0.00 88 1013.3
20260905075033 26 211 0.0 3.2 0.00 0.00 0.00 88 1013.3
20260905074521 26 212 0.0 3.2 0.00 0.00 0.00 88 1013.4
20260905074017 26 211 1.6 3.2 0.00 0.00 0.00 88 1013.2
20260905073525 26 211 0.0 3.2 0.00 0.00 0.00 89 1013.2
20260905073022 26 212 0.0 4.8 0.00 0.00 0.00 89 1013.2
20260905072531 26 212 1.6 8.0 0.00 0.00 0.00 88 1013.1
20260905072029 26 222 3.2 8.0 0.00 0.00 0.00 89 1013.1
20260905071517 26 211 1.6 4.8 0.00 0.00 0.00 89 1013.1
20260905071014 26 213 1.6 4.8 0.00 0.00 0.00 89 1013.2
20260905070522 26 213 1.6 6.4 0.00 0.00 0.00 89 1013.2
20260905070032 26 205 1.6 6.4 0.00 0.00 0.00 89 1013.3
20260905065529 26 204 1.6 4.8 0.00 0.00 0.00 89 1013.2
20260905065017 26 203 1.6 4.8 0.00 0.00 0.00 89 1013.3
20260905064534 26 203 0.0 0.0 0.00 0.00 0.00 89 1013.3
20260905064022 26 203 0.0 0.0 0.00 0.00 0.00 89 1013.4
20260905063534 26 203 0.0 0.0 0.00 0.00 0.00 89 1013.5
20260905063023 26 202 0.0 0.0 0.00 0.00 0.00 89 1013.5
20260905062541 26 203 0.0 0.0 0.00 0.00 0.00 88 1013.5
20260905062029 26 203 0.0 0.0 0.00 0.00 0.00 88 1013.8
20260905061526 26 203 0.0 0.0 0.00 0.00 0.00 88 1013.9
20260905061015 26 203 0.0 0.0 0.00 0.00 0.00 88 1014.0
20260905060532 26 203 0.0 0.0 0.00 0.00 0.00 87 1014.0
20260905060043 26 204 0.0 0.0 0.00 0.00 0.00 87 1014.1
20260905055532 26 203 0.0 0.0 0.00 0.00 0.00 87 1014.2
20260905055020 26 203 0.0 0.0 0.00 0.00 0.00 87 1014.1
20260905054517 26 203 0.0 0.0 0.00 0.00 0.00 87 1014.1
20260905054035 26 203 0.0 0.0 0.00 0.00 0.00 87 1014.1
20260905053522 26 203 0.0 0.0 0.00 0.00 0.00 87 1014.2
20260905053039 26 203 0.0 0.0 0.00 0.00 0.00 86 1014.2
20260905052527 27 203 0.0 0.0 0.00 0.00 0.00 86 1014.3
20260905052016 27 204 0.0 1.6 0.00 0.00 0.00 86 1014.1
20260905051533 27 203 0.0 1.6 0.00 0.00 0.00 86 1014.2
20260905051021 27 203 0.0 1.6 0.00 0.00 0.00 86 1014.2
20260905050517 27 203 0.0 1.6 0.00 0.00 0.00 85 1014.2
20260905050028 27 204 0.0 1.6 0.00 0.00 0.00 85 1014.4
20260905045516 27 203 0.0 1.6 0.00 0.00 0.00 84 1014.3
20260905045014 27 203 0.0 0.0 0.00 0.00 0.00 84 1014.3
20260905044522 27 204 0.0 1.6 0.00 0.00 0.00 84 1014.1
20260905044019 27 203 0.0 1.6 0.00 0.00 0.00 84 1014.2
20260905043528 27 203 0.0 3.2 0.00 0.00 0.00 84 1014.2
20260905043025 27 202 1.6 3.2 0.00 0.00 0.00 84 1014.3
20260905042544 27 203 0.0 0.0 0.00 0.00 0.00 83 1014.3
20260905042031 27 204 0.0 0.0 0.00 0.00 0.00 83 1014.2
20260905041519 27 203 0.0 1.6 0.00 0.00 0.00 83 1014.3
20260905041017 27 203 0.0 1.6 0.00 0.00 0.00 83 1014.3
20260905040525 28 203 0.0 1.6 0.00 0.00 0.00 83 1014.4
20260905040034 28 203 0.0 4.8 0.00 0.00 0.00 83 1014.5
20260905035532 28 203 0.0 4.8 0.00 0.00 0.00 82 1014.4
20260905035020 28 201 1.6 3.2 0.00 0.00 0.00 83 1014.5
20260905034533 28 201 1.6 3.2 0.00 0.00 0.00 82 1014.5
20260905034023 28 202 0.0 1.6 0.00 0.00 0.00 82 1014.3
20260905033521 28 200 0.0 1.6 0.00 0.00 0.00 82 1014.5
20260905033029 28 201 0.0 1.6 0.00 0.00 0.00 82 1014.5
20260905032526 28 201 0.0 3.2 0.00 0.00 0.00 82 1014.5
20260905032034 28 200 0.0 3.2 0.00 0.00 0.00 82 1014.5
20260905031532 28 201 0.0 3.2 0.00 0.00 0.00 82 1014.5
20260905031020 28 200 0.0 1.6 0.00 0.00 0.00 81 1014.5
20260905030519 28 199 0.0 1.6 0.00 0.00 0.00 81 1014.5
20260905030020 28 201 0.0 3.2 0.00 0.00 0.00 81 1014.5
20260905025518 28 201 0.0 1.6 0.00 0.00 0.00 81 1014.5
20260905025035 28 200 0.0 1.6 0.00 0.00 0.00 80 1014.5
20260905024523 28 201 0.0 1.6 0.00 0.00 0.00 80 1014.5
20260905024041 28 201 0.0 0.0 0.00 0.00 0.00 80 1014.5
20260905023529 28 200 0.0 1.6 0.00 0.00 0.00 80 1014.5
20260905023017 29 200 0.0 1.6 0.00 0.00 0.00 79 1014.4
20260905022514 29 201 0.0 0.0 0.00 0.00 0.00 79 1014.2
20260905022032 29 200 0.0 0.0 0.00 0.00 0.00 79 1014.2
20260905021521 29 201 0.0 0.0 0.00 0.00 0.00 79 1014.2
20260905021038 29 200 0.0 0.0 0.00 0.00 0.00 78 1014.2
20260905020526 30 201 0.0 1.6 0.00 0.00 0.00 78 1014.1
20260905020017 30 200 0.0 1.6 0.00 0.00 0.00 78 1014.1
20260905015526 30 201 0.0 1.6 0.00 0.00 0.00 77 1014.0
20260905015024 30 201 0.0 1.6 0.00 0.00 0.00 77 1014.1
20260905014531 30 201 0.0 3.2 0.00 0.00 0.00 77 1014.1
20260905014028 30 201 0.0 3.2 0.00 0.00 0.00 76 1014.0
20260905013516 30 204 1.6 3.2 0.00 0.00 0.00 76 1013.9
20260905013033 30 204 1.6 4.8 0.00 0.00 0.00 76 1013.9
20260905012521 30 204 1.6 4.8 0.00 0.00 0.00 75 1013.9
20260905012018 31 207 1.6 4.8 0.00 0.00 0.00 75 1013.9
20260905011525 31 207 1.6 4.8 0.00 0.00 0.00 75 1013.9
20260905011022 31 212 1.6 4.8 0.00 0.00 0.00 75 1013.9
20260905010530 31 212 1.6 4.8 0.00 0.00 0.00 75 1013.8
20260905010021 31 212 0.0 1.6 0.00 0.00 0.00 74 1013.8
20260905005535 31 213 0.0 1.6 0.00 0.00 0.00 73 1013.9
20260905005023 31 212 0.0 0.0 0.00 0.00 0.00 73 1013.9
20260905004521 32 211 0.0 1.6 0.00 0.00 0.00 72 1013.9
20260905004029 32 211 0.0 1.6 0.00 0.00 0.00 72 1013.9
20260905003526 32 212 0.0 3.2 0.00 0.00 0.00 71 1013.8
20260905003033 32 211 1.6 3.2 0.00 0.00 0.00 71 1013.8
20260905002528 32 211 1.6 1.6 0.00 0.00 0.00 70 1013.8
20260905002016 32 211 0.0 3.2 0.00 0.00 0.00 69 1013.9
20260905001532 33 212 1.6 3.2 0.00 0.00 0.00 69 1014.0
20260905001019 33 212 0.0 4.8 0.00 0.00 0.00 68 1013.9
20260905000516 33 212 3.2 4.8 0.00 0.00 0.00 67 1013.9
20260905000026 33 212 3.2 4.8 0.00 0.00 0.00 67 1013.9
20260904235532 33 211 1.6 6.4 0.00 0.00 0.00 66 1013.9
20260904235028 33 207 1.6 6.4 0.00 0.00 0.00 65 1013.8
20260904234516 33 230 3.2 6.4 0.00 0.00 0.00 64 1013.8
20260904234034 34 208 1.6 6.4 0.00 0.00 0.00 64 1013.9
20260904233523 34 211 1.6 6.4 0.00 0.00 0.00 64 1014.0
20260904233040 34 212 1.6 6.4 0.00 0.00 0.00 63 1013.8
20260904232528 35 210 3.2 6.4 0.00 0.00 0.00 63 1013.8
20260904232027 35 220 3.2 11.3 0.00 0.00 0.00 62 1013.7
20260904231515 35 236 4.8 12.9 0.00 0.00 0.00 61 1013.5
20260904231033 35 201 6.4 12.9 0.00 0.00 0.00 61 1013.5
20260904230521 35 250 4.8 9.7 0.00 0.00 0.00 60 1013.6
20260904230032 35 269 3.2 12.9 0.00 0.00 0.00 61 1013.6
20260904225519 35 230 4.8 9.7 0.00 0.00 0.00 60 1013.5
20260904225016 35 236 4.8 9.7 0.00 0.00 0.00 60 1013.7